This is the latest recevied weather packets stored in our database for station/object EA3ABN-15. If no packets are shown the sender has not sent any weather packets the latest 10 day(s).
| Time | Temp. | Humidity | Pressure | Rain* | Wind** | Luminosity | Snow |
|---|---|---|---|---|---|---|---|
| 1777546313 | 20.56° C | 42% | 1057.5 hPa | - | - | - | - |
| 1777545413 | 20.56° C | 42% | 1057.6 hPa | - | - | - | - |
| 1777544513 | 20° C | 43% | 1057.6 hPa | - | - | - | - |
| 1777543613 | 20° C | 43% | 1057.5 hPa | - | - | - | - |
| 1777542713 | 20° C | 43% | 1057.4 hPa | - | - | - | - |
| 1777541813 | 20° C | 43% | 1057.2 hPa | - | - | - | - |
| 1777540912 | 19.44° C | 43% | 1057.2 hPa | - | - | - | - |
| 1777540015 | 20° C | 43% | 1057.2 hPa | - | - | - | - |
| 1777539115 | 19.44° C | 43% | 1056.9 hPa | - | - | - | - |
| 1777538215 | 19.44° C | 44% | 1056.8 hPa | - | - | - | - |
| 1777537314 | 19.44° C | 45% | 1056.6 hPa | - | - | - | - |
| 1777536414 | 18.89° C | 45% | 1056.6 hPa | - | - | - | - |
| 1777535514 | 18.89° C | 45% | 1056.5 hPa | - | - | - | - |
| 1777534614 | 18.89° C | 47% | 1056.4 hPa | - | - | - | - |
| 1777533714 | 18.33° C | 47% | 1056.3 hPa | - | - | - | - |
| 1777532814 | 17.78° C | 47% | 1056.1 hPa | - | - | - | - |
| 1777531914 | 17.22° C | 48% | 1056.2 hPa | - | - | - | - |
| 1777531014 | 16.67° C | 49% | 1056.3 hPa | - | - | - | - |
| 1777530114 | 16.67° C | 50% | 1056.2 hPa | - | - | - | - |
| 1777529214 | 16.67° C | 51% | 1056.2 hPa | - | - | - | - |
| 1777528314 | 16.67° C | 51% | 1056.1 hPa | - | - | - | - |
| 1777527413 | 16.11° C | 51% | 1056 hPa | - | - | - | - |
| 1777526513 | 16.11° C | 52% | 1055.8 hPa | - | - | - | - |
| 1777525613 | 16.11° C | 52% | 1055.5 hPa | - | - | - | - |
| 1777524713 | 16.11° C | 53% | 1055.5 hPa | - | - | - | - |
* Rain since midnight (hover to see other rain measurements)
** Current wind speed in m/s (hover to see current wind gust speed)